owner,sensor,date,latitude,longitude,air_pressure(mBar),qcFlag 
WAVCIS,ioos:station:WAVCIS:CSI03:1,2017-04-01T00:00:00Z,29.4412,-92.0613,1005.55,11111222 
WAVCIS,ioos:station:WAVCIS:CSI03:1,2017-04-01T01:00:00Z,29.4412,-92.0613,1005.94,11111222 
WAVCIS,ioos:station:WAVCIS:CSI03:1,2017-04-01T02:00:00Z,29.4412,-92.0613,1006.36,11111222 
WAVCIS,ioos:station:WAVCIS:CSI03:1,2017-04-01T03:00:00Z,29.4412,-92.0613,1006.66,11111222 
WAVCIS,ioos:station:WAVCIS:CSI03:1,2017-04-01T04:00:00Z,29.4412,-92.0613,1006.78,11111222 
WAVCIS,ioos:station:WAVCIS:CSI03:1,2017-04-01T05:00:00Z,29.4412,-92.0613,1006.6,11111222 
WAVCIS,ioos:station:WAVCIS:CSI03:1,2017-04-01T06:00:00Z,29.4412,-92.0613,1006.64,11111222 
WAVCIS,ioos:station:WAVCIS:CSI03:1,2017-04-01T07:00:00Z,29.4412,-92.0613,1006.47,11111222 
WAVCIS,ioos:station:WAVCIS:CSI03:1,2017-04-01T08:00:00Z,29.4412,-92.0613,1006.33,11111222 
WAVCIS,ioos:station:WAVCIS:CSI03:1,2017-04-01T09:00:00Z,29.4412,-92.0613,1006.36,11111222 
WAVCIS,ioos:station:WAVCIS:CSI03:1,2017-04-01T10:00:00Z,29.4412,-92.0613,1006.42,11111222 
WAVCIS,ioos:station:WAVCIS:CSI03:1,2017-04-01T11:00:00Z,29.4412,-92.0613,1006.56,11111222 
WAVCIS,ioos:station:WAVCIS:CSI03:1,2017-04-01T12:00:00Z,29.4412,-92.0613,1007.15,11111222 
WAVCIS,ioos:station:WAVCIS:CSI03:1,2017-04-01T13:00:00Z,29.4412,-92.0613,1007.94,11111222 
WAVCIS,ioos:station:WAVCIS:CSI03:1,2017-04-01T14:00:00Z,29.4412,-92.0613,1008.58,11111222 
WAVCIS,ioos:station:WAVCIS:CSI03:1,2017-04-01T15:00:00Z,29.4412,-92.0613,1009.67,11111222 
WAVCIS,ioos:station:WAVCIS:CSI03:1,2017-04-01T16:00:00Z,29.4412,-92.0613,1009.35,11111222 
WAVCIS,ioos:station:WAVCIS:CSI03:1,2017-04-01T17:00:00Z,29.4412,-92.0613,1009.41,11111222 
WAVCIS,ioos:station:WAVCIS:CSI03:1,2017-04-01T18:00:00Z,29.4412,-92.0613,1009.15,11111222 
WAVCIS,ioos:station:WAVCIS:CSI03:1,2017-04-01T19:00:00Z,29.4412,-92.0613,1007.73,11111222 
WAVCIS,ioos:station:WAVCIS:CSI03:1,2017-04-01T20:00:00Z,29.4412,-92.0613,1007.82,11111222 
WAVCIS,ioos:station:WAVCIS:CSI03:1,2017-04-01T21:00:00Z,29.4412,-92.0613,1007.33,11111222 
WAVCIS,ioos:station:WAVCIS:CSI03:1,2017-04-01T22:00:00Z,29.4412,-92.0613,1007.12,11111222 
WAVCIS,ioos:station:WAVCIS:CSI03:1,2017-04-01T23:00:00Z,29.4412,-92.0613,1007.05,11111222 
WAVCIS,ioos:station:WAVCIS:CSI03:1,2017-04-02T00:00:00Z,29.4412,-92.0613,1007.06,11111222 
WAVCIS,ioos:station:WAVCIS:CSI03:1,2017-04-02T01:00:00Z,29.4412,-92.0613,1006.59,11111222 
WAVCIS,ioos:station:WAVCIS:CSI03:1,2017-04-02T02:00:00Z,29.4412,-92.0613,1007.11,11111222 
WAVCIS,ioos:station:WAVCIS:CSI03:1,2017-04-02T03:00:00Z,29.4412,-92.0613,1007.05,11111222 
WAVCIS,ioos:station:WAVCIS:CSI03:1,2017-04-02T04:00:00Z,29.4412,-92.0613,1007.0,11111222 
WAVCIS,ioos:station:WAVCIS:CSI03:1,2017-04-02T05:00:00Z,29.4412,-92.0613,1006.92,11111222 
WAVCIS,ioos:station:WAVCIS:CSI03:1,2017-04-02T06:00:00Z,29.4412,-92.0613,1005.82,11111222 
WAVCIS,ioos:station:WAVCIS:CSI03:1,2017-04-02T07:00:00Z,29.4412,-92.0613,1005.24,11111222 
WAVCIS,ioos:station:WAVCIS:CSI03:1,2017-04-02T08:00:00Z,29.4412,-92.0613,1004.29,11111222 
WAVCIS,ioos:station:WAVCIS:CSI03:1,2017-04-02T09:00:00Z,29.4412,-92.0613,1004.27,11111222 
WAVCIS,ioos:station:WAVCIS:CSI03:1,2017-04-02T10:00:00Z,29.4412,-92.0613,1003.72,11111222 
WAVCIS,ioos:station:WAVCIS:CSI03:1,2017-04-02T11:00:00Z,29.4412,-92.0613,1003.47,11111222 
WAVCIS,ioos:station:WAVCIS:CSI03:1,2017-04-02T12:00:00Z,29.4412,-92.0613,1004.2,11111222 
WAVCIS,ioos:station:WAVCIS:CSI03:1,2017-04-02T13:00:00Z,29.4412,-92.0613,1004.11,11111222 
WAVCIS,ioos:station:WAVCIS:CSI03:1,2017-04-02T14:00:00Z,29.4412,-92.0613,1003.53,11111222 
WAVCIS,ioos:station:WAVCIS:CSI03:1,2017-04-02T15:00:00Z,29.4412,-92.0613,1004.26,11111222 
WAVCIS,ioos:station:WAVCIS:CSI03:1,2017-04-02T16:00:00Z,29.4412,-92.0613,1003.86,11111222 
WAVCIS,ioos:station:WAVCIS:CSI03:1,2017-04-02T17:00:00Z,29.4412,-92.0613,1002.862,11111222 
WAVCIS,ioos:station:WAVCIS:CSI03:1,2017-04-02T18:00:00Z,29.4412,-92.0613,1003.054,11111222 
WAVCIS,ioos:station:WAVCIS:CSI03:1,2017-04-02T19:00:00Z,29.4412,-92.0613,1000.4,11111222 
WAVCIS,ioos:station:WAVCIS:CSI03:1,2017-04-02T20:00:00Z,29.4412,-92.0613,999.216,11111222 
WAVCIS,ioos:station:WAVCIS:CSI03:1,2017-04-02T21:00:00Z,29.4412,-92.0613,998.036,11111222 
WAVCIS,ioos:station:WAVCIS:CSI03:1,2017-04-02T22:00:00Z,29.4412,-92.0613,997.716,11111222 
WAVCIS,ioos:station:WAVCIS:CSI03:1,2017-04-02T23:00:00Z,29.4412,-92.0613,997.999,11111222 
WAVCIS,ioos:station:WAVCIS:CSI03:1,2017-04-03T00:00:00Z,29.4412,-92.0613,997.565,11111222 
WAVCIS,ioos:station:WAVCIS:CSI03:1,2017-04-03T01:00:00Z,29.4412,-92.0613,997.161,11111222 
WAVCIS,ioos:station:WAVCIS:CSI03:1,2017-04-03T02:00:00Z,29.4412,-92.0613,999.435,11111222 
WAVCIS,ioos:station:WAVCIS:CSI03:1,2017-04-03T03:00:00Z,29.4412,-92.0613,999.563,11111222 
WAVCIS,ioos:station:WAVCIS:CSI03:1,2017-04-03T04:00:00Z,29.4412,-92.0613,999.923,11111222 
WAVCIS,ioos:station:WAVCIS:CSI03:1,2017-04-03T05:00:00Z,29.4412,-92.0613,999.946,11111222 
WAVCIS,ioos:station:WAVCIS:CSI03:1,2017-04-03T06:00:00Z,29.4412,-92.0613,999.531,11111222 
WAVCIS,ioos:station:WAVCIS:CSI03:1,2017-04-03T07:00:00Z,29.4412,-92.0613,999.344,11111222 
WAVCIS,ioos:station:WAVCIS:CSI03:1,2017-04-03T08:00:00Z,29.4412,-92.0613,999.173,11111222 
WAVCIS,ioos:station:WAVCIS:CSI03:1,2017-04-03T09:00:00Z,29.4412,-92.0613,998.812,11111222 
WAVCIS,ioos:station:WAVCIS:CSI03:1,2017-04-03T10:00:00Z,29.4412,-92.0613,999.493,11111222 
WAVCIS,ioos:station:WAVCIS:CSI03:1,2017-04-03T11:00:00Z,29.4412,-92.0613,999.68,11111222 
WAVCIS,ioos:station:WAVCIS:CSI03:1,2017-04-03T12:00:00Z,29.4412,-92.0613,1000.516,11111222 
WAVCIS,ioos:station:WAVCIS:CSI03:1,2017-04-03T13:00:00Z,29.4412,-92.0613,1001.711,11111222 
WAVCIS,ioos:station:WAVCIS:CSI03:1,2017-04-03T14:00:00Z,29.4412,-92.0613,1002.701,11111222 
WAVCIS,ioos:station:WAVCIS:CSI03:1,2017-04-03T15:00:00Z,29.4412,-92.0613,1002.553,11111222 
WAVCIS,ioos:station:WAVCIS:CSI03:1,2017-04-03T16:00:00Z,29.4412,-92.0613,1003.16,11111222 
WAVCIS,ioos:station:WAVCIS:CSI03:1,2017-04-03T17:00:00Z,29.4412,-92.0613,1003.057,11111222 
WAVCIS,ioos:station:WAVCIS:CSI03:1,2017-04-03T18:00:00Z,29.4412,-92.0613,1003.13,11111222 
WAVCIS,ioos:station:WAVCIS:CSI03:1,2017-04-03T19:00:00Z,29.4412,-92.0613,1002.672,11111222 
WAVCIS,ioos:station:WAVCIS:CSI03:1,2017-04-03T20:00:00Z,29.4412,-92.0613,1002.231,11111222 
WAVCIS,ioos:station:WAVCIS:CSI03:1,2017-04-03T21:00:00Z,29.4412,-92.0613,1001.764,11111222 
WAVCIS,ioos:station:WAVCIS:CSI03:1,2017-04-03T22:00:00Z,29.4412,-92.0613,1001.488,11111222 
WAVCIS,ioos:station:WAVCIS:CSI03:1,2017-04-03T23:00:00Z,29.4412,-92.0613,1001.285,11111222 
WAVCIS,ioos:station:WAVCIS:CSI03:1,2017-04-04T00:00:00Z,29.4412,-92.0613,1001.392,11111222 
WAVCIS,ioos:station:WAVCIS:CSI03:1,2017-04-04T01:00:00Z,29.4412,-92.0613,1001.7,11111222 
WAVCIS,ioos:station:WAVCIS:CSI03:1,2017-04-04T02:00:00Z,29.4412,-92.0613,1002.181,11111222 
WAVCIS,ioos:station:WAVCIS:CSI03:1,2017-04-04T03:00:00Z,29.4412,-92.0613,1002.898,11111222 
WAVCIS,ioos:station:WAVCIS:CSI03:1,2017-04-04T04:00:00Z,29.4412,-92.0613,1002.96,11111222 
WAVCIS,ioos:station:WAVCIS:CSI03:1,2017-04-04T05:00:00Z,29.4412,-92.0613,1003.39,11111222 
WAVCIS,ioos:station:WAVCIS:CSI03:1,2017-04-04T06:00:00Z,29.4412,-92.0613,1003.44,11111222 
WAVCIS,ioos:station:WAVCIS:CSI03:1,2017-04-04T07:00:00Z,29.4412,-92.0613,1003.23,11111222 
WAVCIS,ioos:station:WAVCIS:CSI03:1,2017-04-04T08:00:00Z,29.4412,-92.0613,1002.825,11111222 
WAVCIS,ioos:station:WAVCIS:CSI03:1,2017-04-04T09:00:00Z,29.4412,-92.0613,1002.257,11111222 
WAVCIS,ioos:station:WAVCIS:CSI03:1,2017-04-04T10:00:00Z,29.4412,-92.0613,1002.462,11111222 
WAVCIS,ioos:station:WAVCIS:CSI03:1,2017-04-04T11:00:00Z,29.4412,-92.0613,1002.27,11111222 
WAVCIS,ioos:station:WAVCIS:CSI03:1,2017-04-04T12:00:00Z,29.4412,-92.0613,1003.48,11111222 
WAVCIS,ioos:station:WAVCIS:CSI03:1,2017-04-04T13:00:00Z,29.4412,-92.0613,1003.59,11111222 
WAVCIS,ioos:station:WAVCIS:CSI03:1,2017-04-04T14:00:00Z,29.4412,-92.0613,1003.75,11111222 
WAVCIS,ioos:station:WAVCIS:CSI03:1,2017-04-04T15:00:00Z,29.4412,-92.0613,1003.66,11111222 
WAVCIS,ioos:station:WAVCIS:CSI03:1,2017-04-04T16:00:00Z,29.4412,-92.0613,1004.11,11111222 
WAVCIS,ioos:station:WAVCIS:CSI03:1,2017-04-04T17:00:00Z,29.4412,-92.0613,1004.12,11111222 
WAVCIS,ioos:station:WAVCIS:CSI03:1,2017-04-04T18:00:00Z,29.4412,-92.0613,1003.24,11111222 
WAVCIS,ioos:station:WAVCIS:CSI03:1,2017-04-04T19:00:00Z,29.4412,-92.0613,1002.368,11111222 
WAVCIS,ioos:station:WAVCIS:CSI03:1,2017-04-04T20:00:00Z,29.4412,-92.0613,1001.31,11111222 
WAVCIS,ioos:station:WAVCIS:CSI03:1,2017-04-04T21:00:00Z,29.4412,-92.0613,1000.765,11111222 
WAVCIS,ioos:station:WAVCIS:CSI03:1,2017-04-04T22:00:00Z,29.4412,-92.0613,1000.164,11111222 
WAVCIS,ioos:station:WAVCIS:CSI03:1,2017-04-04T23:00:00Z,29.4412,-92.0613,999.823,11111222 
WAVCIS,ioos:station:WAVCIS:CSI03:1,2017-04-05T00:00:00Z,29.4412,-92.0613,999.974,11111222 
WAVCIS,ioos:station:WAVCIS:CSI03:1,2017-04-05T01:00:00Z,29.4412,-92.0613,1000.082,11111222 
WAVCIS,ioos:station:WAVCIS:CSI03:1,2017-04-05T02:00:00Z,29.4412,-92.0613,1000.55,11111222 
WAVCIS,ioos:station:WAVCIS:CSI03:1,2017-04-05T03:00:00Z,29.4412,-92.0613,1001.487,11111222 
WAVCIS,ioos:station:WAVCIS:CSI03:1,2017-04-05T04:00:00Z,29.4412,-92.0613,1001.727,11111222 
WAVCIS,ioos:station:WAVCIS:CSI03:1,2017-04-05T05:00:00Z,29.4412,-92.0613,1001.451,11111222 
WAVCIS,ioos:station:WAVCIS:CSI03:1,2017-04-05T06:00:00Z,29.4412,-92.0613,1001.196,11111222 
WAVCIS,ioos:station:WAVCIS:CSI03:1,2017-04-05T07:00:00Z,29.4412,-92.0613,1001.177,11111222 
WAVCIS,ioos:station:WAVCIS:CSI03:1,2017-04-05T08:00:00Z,29.4412,-92.0613,1001.094,11111222 
WAVCIS,ioos:station:WAVCIS:CSI03:1,2017-04-05T09:00:00Z,29.4412,-92.0613,1000.845,11111222 
WAVCIS,ioos:station:WAVCIS:CSI03:1,2017-04-05T10:00:00Z,29.4412,-92.0613,1001.221,11111222 
WAVCIS,ioos:station:WAVCIS:CSI03:1,2017-04-05T11:00:00Z,29.4412,-92.0613,1002.093,11111222 
WAVCIS,ioos:station:WAVCIS:CSI03:1,2017-04-05T12:00:00Z,29.4412,-92.0613,1003.17,11111222 
WAVCIS,ioos:station:WAVCIS:CSI03:1,2017-04-05T13:00:00Z,29.4412,-92.0613,1003.87,11111222 
WAVCIS,ioos:station:WAVCIS:CSI03:1,2017-04-05T14:00:00Z,29.4412,-92.0613,1004.3,11111222 
WAVCIS,ioos:station:WAVCIS:CSI03:1,2017-04-05T15:00:00Z,29.4412,-92.0613,1004.8,11111222 
WAVCIS,ioos:station:WAVCIS:CSI03:1,2017-04-05T16:00:00Z,29.4412,-92.0613,1005.26,11111222 
WAVCIS,ioos:station:WAVCIS:CSI03:1,2017-04-05T17:00:00Z,29.4412,-92.0613,1005.59,11111222 
WAVCIS,ioos:station:WAVCIS:CSI03:1,2017-04-05T18:00:00Z,29.4412,-92.0613,1005.82,11111222 
WAVCIS,ioos:station:WAVCIS:CSI03:1,2017-04-05T19:00:00Z,29.4412,-92.0613,1005.66,11111222 
WAVCIS,ioos:station:WAVCIS:CSI03:1,2017-04-05T20:00:00Z,29.4412,-92.0613,1005.91,11111222 
WAVCIS,ioos:station:WAVCIS:CSI03:1,2017-04-05T21:00:00Z,29.4412,-92.0613,1006.08,11111222 
WAVCIS,ioos:station:WAVCIS:CSI03:1,2017-04-05T22:00:00Z,29.4412,-92.0613,1006.38,11111222 
WAVCIS,ioos:station:WAVCIS:CSI03:1,2017-04-05T23:00:00Z,29.4412,-92.0613,1007.07,11111222 
WAVCIS,ioos:station:WAVCIS:CSI03:1,2017-04-06T00:00:00Z,29.4412,-92.0613,1008.0,11111222 
WAVCIS,ioos:station:WAVCIS:CSI03:1,2017-04-06T01:00:00Z,29.4412,-92.0613,1009.23,11111222 
WAVCIS,ioos:station:WAVCIS:CSI03:1,2017-04-06T02:00:00Z,29.4412,-92.0613,1010.54,11111222 
WAVCIS,ioos:station:WAVCIS:CSI03:1,2017-04-06T03:00:00Z,29.4412,-92.0613,1011.66,11111222 
WAVCIS,ioos:station:WAVCIS:CSI03:1,2017-04-06T04:00:00Z,29.4412,-92.0613,1012.31,11111222 
WAVCIS,ioos:station:WAVCIS:CSI03:1,2017-04-06T05:00:00Z,29.4412,-92.0613,1012.69,11111222 
WAVCIS,ioos:station:WAVCIS:CSI03:1,2017-04-06T06:00:00Z,29.4412,-92.0613,1012.89,11111222 
WAVCIS,ioos:station:WAVCIS:CSI03:1,2017-04-06T07:00:00Z,29.4412,-92.0613,1012.9,11111222 
WAVCIS,ioos:station:WAVCIS:CSI03:1,2017-04-06T08:00:00Z,29.4412,-92.0613,1012.69,11111222 
WAVCIS,ioos:station:WAVCIS:CSI03:1,2017-04-06T09:00:00Z,29.4412,-92.0613,1012.7,11111222 
WAVCIS,ioos:station:WAVCIS:CSI03:1,2017-04-06T10:00:00Z,29.4412,-92.0613,1013.12,11111222 
WAVCIS,ioos:station:WAVCIS:CSI03:1,2017-04-06T11:00:00Z,29.4412,-92.0613,1013.91,11111222 
WAVCIS,ioos:station:WAVCIS:CSI03:1,2017-04-06T12:00:00Z,29.4412,-92.0613,1014.89,11111222 
WAVCIS,ioos:station:WAVCIS:CSI03:1,2017-04-06T13:00:00Z,29.4412,-92.0613,1015.89,11111222 
WAVCIS,ioos:station:WAVCIS:CSI03:1,2017-04-06T14:00:00Z,29.4412,-92.0613,1016.51,11111222 
WAVCIS,ioos:station:WAVCIS:CSI03:1,2017-04-06T15:00:00Z,29.4412,-92.0613,1016.68,11111222 
WAVCIS,ioos:station:WAVCIS:CSI03:1,2017-04-06T16:00:00Z,29.4412,-92.0613,1017.11,11111222 
WAVCIS,ioos:station:WAVCIS:CSI03:1,2017-04-06T17:00:00Z,29.4412,-92.0613,1017.16,11111222 
WAVCIS,ioos:station:WAVCIS:CSI03:1,2017-04-06T18:00:00Z,29.4412,-92.0613,1016.44,11111222 
WAVCIS,ioos:station:WAVCIS:CSI03:1,2017-04-06T19:00:00Z,29.4412,-92.0613,1015.73,11111222 
WAVCIS,ioos:station:WAVCIS:CSI03:1,2017-04-06T20:00:00Z,29.4412,-92.0613,1015.01,11111222 
WAVCIS,ioos:station:WAVCIS:CSI03:1,2017-04-06T21:00:00Z,29.4412,-92.0613,1014.59,11111222 
WAVCIS,ioos:station:WAVCIS:CSI03:1,2017-04-06T22:00:00Z,29.4412,-92.0613,1014.37,11111222 
WAVCIS,ioos:station:WAVCIS:CSI03:1,2017-04-06T23:00:00Z,29.4412,-92.0613,1014.28,11111222 
WAVCIS,ioos:station:WAVCIS:CSI03:1,2017-04-07T00:00:00Z,29.4412,-92.0613,1014.16,11111222 
WAVCIS,ioos:station:WAVCIS:CSI03:1,2017-04-07T01:00:00Z,29.4412,-92.0613,1014.88,11111222 
WAVCIS,ioos:station:WAVCIS:CSI03:1,2017-04-07T02:00:00Z,29.4412,-92.0613,1015.38,11111222 
WAVCIS,ioos:station:WAVCIS:CSI03:1,2017-04-07T03:00:00Z,29.4412,-92.0613,1016.19,11111222 
WAVCIS,ioos:station:WAVCIS:CSI03:1,2017-04-07T04:00:00Z,29.4412,-92.0613,1016.07,11111222 
WAVCIS,ioos:station:WAVCIS:CSI03:1,2017-04-07T05:00:00Z,29.4412,-92.0613,1016.1,11111222 
WAVCIS,ioos:station:WAVCIS:CSI03:1,2017-04-07T06:00:00Z,29.4412,-92.0613,1016.14,11111222 
WAVCIS,ioos:station:WAVCIS:CSI03:1,2017-04-07T07:00:00Z,29.4412,-92.0613,1016.32,11111222 
WAVCIS,ioos:station:WAVCIS:CSI03:1,2017-04-07T08:00:00Z,29.4412,-92.0613,1016.8,11111222 
WAVCIS,ioos:station:WAVCIS:CSI03:1,2017-04-07T09:00:00Z,29.4412,-92.0613,1016.84,11111222 
WAVCIS,ioos:station:WAVCIS:CSI03:1,2017-04-07T10:00:00Z,29.4412,-92.0613,1016.59,11111222 
WAVCIS,ioos:station:WAVCIS:CSI03:1,2017-04-07T11:00:00Z,29.4412,-92.0613,1016.55,11111222 
WAVCIS,ioos:station:WAVCIS:CSI03:1,2017-04-07T12:00:00Z,29.4412,-92.0613,1016.8,11111222 
WAVCIS,ioos:station:WAVCIS:CSI03:1,2017-04-07T13:00:00Z,29.4412,-92.0613,1017.46,11111222 
WAVCIS,ioos:station:WAVCIS:CSI03:1,2017-04-07T14:00:00Z,29.4412,-92.0613,1018.04,11111222 
WAVCIS,ioos:station:WAVCIS:CSI03:1,2017-04-07T15:00:00Z,29.4412,-92.0613,1018.47,11111222 
WAVCIS,ioos:station:WAVCIS:CSI03:1,2017-04-07T16:00:00Z,29.4412,-92.0613,1018.74,11111222 
WAVCIS,ioos:station:WAVCIS:CSI03:1,2017-04-07T17:00:00Z,29.4412,-92.0613,1018.61,11111222 
WAVCIS,ioos:station:WAVCIS:CSI03:1,2017-04-07T18:00:00Z,29.4412,-92.0613,1017.82,11111222 
WAVCIS,ioos:station:WAVCIS:CSI03:1,2017-04-07T19:00:00Z,29.4412,-92.0613,1017.38,11111222 
WAVCIS,ioos:station:WAVCIS:CSI03:1,2017-04-07T20:00:00Z,29.4412,-92.0613,1016.49,11111222 
WAVCIS,ioos:station:WAVCIS:CSI03:1,2017-04-07T21:00:00Z,29.4412,-92.0613,1015.81,11111222 
WAVCIS,ioos:station:WAVCIS:CSI03:1,2017-04-07T22:00:00Z,29.4412,-92.0613,1015.15,11111222 
WAVCIS,ioos:station:WAVCIS:CSI03:1,2017-04-07T23:00:00Z,29.4412,-92.0613,1014.67,11111222 
WAVCIS,ioos:station:WAVCIS:CSI03:1,2017-04-08T00:00:00Z,29.4412,-92.0613,1014.38,11111222 
WAVCIS,ioos:station:WAVCIS:CSI03:1,2017-04-08T01:00:00Z,29.4412,-92.0613,1014.31,11111222 
WAVCIS,ioos:station:WAVCIS:CSI03:1,2017-04-08T02:00:00Z,29.4412,-92.0613,1014.7,11111222 
WAVCIS,ioos:station:WAVCIS:CSI03:1,2017-04-08T03:00:00Z,29.4412,-92.0613,1015.23,11111222 
WAVCIS,ioos:station:WAVCIS:CSI03:1,2017-04-08T04:00:00Z,29.4412,-92.0613,1015.12,11111222 
WAVCIS,ioos:station:WAVCIS:CSI03:1,2017-04-08T05:00:00Z,29.4412,-92.0613,1014.79,11111222 
WAVCIS,ioos:station:WAVCIS:CSI03:1,2017-04-08T06:00:00Z,29.4412,-92.0613,1014.48,11111222 
WAVCIS,ioos:station:WAVCIS:CSI03:1,2017-04-08T07:00:00Z,29.4412,-92.0613,1013.83,11111222 
WAVCIS,ioos:station:WAVCIS:CSI03:1,2017-04-08T08:00:00Z,29.4412,-92.0613,1013.55,11111222 
WAVCIS,ioos:station:WAVCIS:CSI03:1,2017-04-08T09:00:00Z,29.4412,-92.0613,1013.33,11111222 
WAVCIS,ioos:station:WAVCIS:CSI03:1,2017-04-08T10:00:00Z,29.4412,-92.0613,1013.45,11111222 
WAVCIS,ioos:station:WAVCIS:CSI03:1,2017-04-08T11:00:00Z,29.4412,-92.0613,1014.07,11111222 
WAVCIS,ioos:station:WAVCIS:CSI03:1,2017-04-08T12:00:00Z,29.4412,-92.0613,1014.33,11111222 
WAVCIS,ioos:station:WAVCIS:CSI03:1,2017-04-08T13:00:00Z,29.4412,-92.0613,1014.74,11111222 
WAVCIS,ioos:station:WAVCIS:CSI03:1,2017-04-08T14:00:00Z,29.4412,-92.0613,1014.75,11111222 
WAVCIS,ioos:station:WAVCIS:CSI03:1,2017-04-08T15:00:00Z,29.4412,-92.0613,1015.06,11111222 
WAVCIS,ioos:station:WAVCIS:CSI03:1,2017-04-08T16:00:00Z,29.4412,-92.0613,1015.39,11111222 
WAVCIS,ioos:station:WAVCIS:CSI03:1,2017-04-08T17:00:00Z,29.4412,-92.0613,1015.15,11111222 
WAVCIS,ioos:station:WAVCIS:CSI03:1,2017-04-08T18:00:00Z,29.4412,-92.0613,1014.76,11111222 
WAVCIS,ioos:station:WAVCIS:CSI03:1,2017-04-08T19:00:00Z,29.4412,-92.0613,1014.38,11111222 
WAVCIS,ioos:station:WAVCIS:CSI03:1,2017-04-08T20:00:00Z,29.4412,-92.0613,1013.76,11111222 
WAVCIS,ioos:station:WAVCIS:CSI03:1,2017-04-08T21:00:00Z,29.4412,-92.0613,1013.05,11111222 
WAVCIS,ioos:station:WAVCIS:CSI03:1,2017-04-08T22:00:00Z,29.4412,-92.0613,1012.35,11111222 
WAVCIS,ioos:station:WAVCIS:CSI03:1,2017-04-08T23:00:00Z,29.4412,-92.0613,1012.0,11111222 
WAVCIS,ioos:station:WAVCIS:CSI03:1,2017-04-09T00:00:00Z,29.4412,-92.0613,1011.51,11111222 
WAVCIS,ioos:station:WAVCIS:CSI03:1,2017-04-09T01:00:00Z,29.4412,-92.0613,1011.0,11111222 
WAVCIS,ioos:station:WAVCIS:CSI03:1,2017-04-09T02:00:00Z,29.4412,-92.0613,1010.93,11111222 
WAVCIS,ioos:station:WAVCIS:CSI03:1,2017-04-09T03:00:00Z,29.4412,-92.0613,1011.47,11111222 
WAVCIS,ioos:station:WAVCIS:CSI03:1,2017-04-09T04:00:00Z,29.4412,-92.0613,1011.93,11111222 
WAVCIS,ioos:station:WAVCIS:CSI03:1,2017-04-09T05:00:00Z,29.4412,-92.0613,1011.84,11111222 
WAVCIS,ioos:station:WAVCIS:CSI03:1,2017-04-09T06:00:00Z,29.4412,-92.0613,1011.62,11111222 
WAVCIS,ioos:station:WAVCIS:CSI03:1,2017-04-09T07:00:00Z,29.4412,-92.0613,1010.84,11111222 
WAVCIS,ioos:station:WAVCIS:CSI03:1,2017-04-09T08:00:00Z,29.4412,-92.0613,1010.08,11111222 
WAVCIS,ioos:station:WAVCIS:CSI03:1,2017-04-09T09:00:00Z,29.4412,-92.0613,1010.19,11111222 
WAVCIS,ioos:station:WAVCIS:CSI03:1,2017-04-09T10:00:00Z,29.4412,-92.0613,1009.7,11111222 
WAVCIS,ioos:station:WAVCIS:CSI03:1,2017-04-09T11:00:00Z,29.4412,-92.0613,1010.28,11111222 
WAVCIS,ioos:station:WAVCIS:CSI03:1,2017-04-09T12:00:00Z,29.4412,-92.0613,1010.67,11111222 
WAVCIS,ioos:station:WAVCIS:CSI03:1,2017-04-09T13:00:00Z,29.4412,-92.0613,1011.59,11111222 
WAVCIS,ioos:station:WAVCIS:CSI03:1,2017-04-09T14:00:00Z,29.4412,-92.0613,1012.27,11111222 
WAVCIS,ioos:station:WAVCIS:CSI03:1,2017-04-09T15:00:00Z,29.4412,-92.0613,1012.32,11111222 
WAVCIS,ioos:station:WAVCIS:CSI03:1,2017-04-09T16:00:00Z,29.4412,-92.0613,1012.86,11111222 
WAVCIS,ioos:station:WAVCIS:CSI03:1,2017-04-09T17:00:00Z,29.4412,-92.0613,1013.09,11111222 
WAVCIS,ioos:station:WAVCIS:CSI03:1,2017-04-09T18:00:00Z,29.4412,-92.0613,1012.46,11111222 
WAVCIS,ioos:station:WAVCIS:CSI03:1,2017-04-09T19:00:00Z,29.4412,-92.0613,1012.31,11111222 
WAVCIS,ioos:station:WAVCIS:CSI03:1,2017-04-09T20:00:00Z,29.4412,-92.0613,1011.86,11111222 
WAVCIS,ioos:station:WAVCIS:CSI03:1,2017-04-09T21:00:00Z,29.4412,-92.0613,1011.32,11111222 
WAVCIS,ioos:station:WAVCIS:CSI03:1,2017-04-09T22:00:00Z,29.4412,-92.0613,1010.54,11111222 
WAVCIS,ioos:station:WAVCIS:CSI03:1,2017-04-09T23:00:00Z,29.4412,-92.0613,1010.82,11111222 
WAVCIS,ioos:station:WAVCIS:CSI03:1,2017-04-10T00:00:00Z,29.4412,-92.0613,1010.36,11111222 
WAVCIS,ioos:station:WAVCIS:CSI03:1,2017-04-10T01:00:00Z,29.4412,-92.0613,1009.48,11111222 
WAVCIS,ioos:station:WAVCIS:CSI03:1,2017-04-10T02:00:00Z,29.4412,-92.0613,1010.1,11111222 
WAVCIS,ioos:station:WAVCIS:CSI03:1,2017-04-10T03:00:00Z,29.4412,-92.0613,1010.37,11111222 
WAVCIS,ioos:station:WAVCIS:CSI03:1,2017-04-10T04:00:00Z,29.4412,-92.0613,1010.34,11111222 
WAVCIS,ioos:station:WAVCIS:CSI03:1,2017-04-10T05:00:00Z,29.4412,-92.0613,1010.73,11111222 
WAVCIS,ioos:station:WAVCIS:CSI03:1,2017-04-10T06:00:00Z,29.4412,-92.0613,1011.01,11111222 
WAVCIS,ioos:station:WAVCIS:CSI03:1,2017-04-10T07:00:00Z,29.4412,-92.0613,1011.04,11111222 
WAVCIS,ioos:station:WAVCIS:CSI03:1,2017-04-10T08:00:00Z,29.4412,-92.0613,1010.46,11111222 
WAVCIS,ioos:station:WAVCIS:CSI03:1,2017-04-10T09:00:00Z,29.4412,-92.0613,1009.99,11111222 
WAVCIS,ioos:station:WAVCIS:CSI03:1,2017-04-10T10:00:00Z,29.4412,-92.0613,1010.64,11111222 
WAVCIS,ioos:station:WAVCIS:CSI03:1,2017-04-10T11:00:00Z,29.4412,-92.0613,1011.79,11111222 
WAVCIS,ioos:station:WAVCIS:CSI03:1,2017-04-10T12:00:00Z,29.4412,-92.0613,1012.14,11111222 
WAVCIS,ioos:station:WAVCIS:CSI03:1,2017-04-10T13:00:00Z,29.4412,-92.0613,1012.51,11111222 
WAVCIS,ioos:station:WAVCIS:CSI03:1,2017-04-10T14:00:00Z,29.4412,-92.0613,1012.85,11111222 
WAVCIS,ioos:station:WAVCIS:CSI03:1,2017-04-10T15:00:00Z,29.4412,-92.0613,1013.25,11111222 
WAVCIS,ioos:station:WAVCIS:CSI03:1,2017-04-10T16:00:00Z,29.4412,-92.0613,1013.51,11111222 
WAVCIS,ioos:station:WAVCIS:CSI03:1,2017-04-10T17:00:00Z,29.4412,-92.0613,1014.26,11111222 
WAVCIS,ioos:station:WAVCIS:CSI03:1,2017-04-10T18:00:00Z,29.4412,-92.0613,1014.55,11111222 
WAVCIS,ioos:station:WAVCIS:CSI03:1,2017-04-10T19:00:00Z,29.4412,-92.0613,1014.82,11111222 
WAVCIS,ioos:station:WAVCIS:CSI03:1,2017-04-10T20:00:00Z,29.4412,-92.0613,1014.06,11111222 
WAVCIS,ioos:station:WAVCIS:CSI03:1,2017-04-10T21:00:00Z,29.4412,-92.0613,1013.77,11111222 
WAVCIS,ioos:station:WAVCIS:CSI03:1,2017-04-10T22:00:00Z,29.4412,-92.0613,1013.38,11111222 
WAVCIS,ioos:station:WAVCIS:CSI03:1,2017-04-10T23:00:00Z,29.4412,-92.0613,1012.69,11111222 
WAVCIS,ioos:station:WAVCIS:CSI03:1,2017-04-11T00:00:00Z,29.4412,-92.0613,1012.72,11111222 
WAVCIS,ioos:station:WAVCIS:CSI03:1,2017-04-11T01:00:00Z,29.4412,-92.0613,1012.49,11111222 
WAVCIS,ioos:station:WAVCIS:CSI03:1,2017-04-11T02:00:00Z,29.4412,-92.0613,1012.46,11111222 
WAVCIS,ioos:station:WAVCIS:CSI03:1,2017-04-11T03:00:00Z,29.4412,-92.0613,1013.67,11111222 
WAVCIS,ioos:station:WAVCIS:CSI03:1,2017-04-11T04:00:00Z,29.4412,-92.0613,1013.6,11111222 
WAVCIS,ioos:station:WAVCIS:CSI03:1,2017-04-11T05:00:00Z,29.4412,-92.0613,1012.99,11111222 
WAVCIS,ioos:station:WAVCIS:CSI03:1,2017-04-11T06:00:00Z,29.4412,-92.0613,1013.44,11111222 
WAVCIS,ioos:station:WAVCIS:CSI03:1,2017-04-11T07:00:00Z,29.4412,-92.0613,1013.29,11111222 
WAVCIS,ioos:station:WAVCIS:CSI03:1,2017-04-11T08:00:00Z,29.4412,-92.0613,1013.59,11111222 
WAVCIS,ioos:station:WAVCIS:CSI03:1,2017-04-11T09:00:00Z,29.4412,-92.0613,1013.8,11111222 
WAVCIS,ioos:station:WAVCIS:CSI03:1,2017-04-11T10:00:00Z,29.4412,-92.0613,1013.64,11111222 
WAVCIS,ioos:station:WAVCIS:CSI03:1,2017-04-11T11:00:00Z,29.4412,-92.0613,1014.17,11111222 
WAVCIS,ioos:station:WAVCIS:CSI03:1,2017-04-11T12:00:00Z,29.4412,-92.0613,1013.86,11111222 
WAVCIS,ioos:station:WAVCIS:CSI03:1,2017-04-11T13:00:00Z,29.4412,-92.0613,1014.29,11111222 
WAVCIS,ioos:station:WAVCIS:CSI03:1,2017-04-11T14:00:00Z,29.4412,-92.0613,1014.37,11111222 
WAVCIS,ioos:station:WAVCIS:CSI03:1,2017-04-11T15:00:00Z,29.4412,-92.0613,1014.49,11111222 
WAVCIS,ioos:station:WAVCIS:CSI03:1,2017-04-11T16:00:00Z,29.4412,-92.0613,1015.64,11111222 
WAVCIS,ioos:station:WAVCIS:CSI03:1,2017-04-11T17:00:00Z,29.4412,-92.0613,1015.11,11111222 
WAVCIS,ioos:station:WAVCIS:CSI03:1,2017-04-11T18:00:00Z,29.4412,-92.0613,1015.31,11111222 
WAVCIS,ioos:station:WAVCIS:CSI03:1,2017-04-11T19:00:00Z,29.4412,-92.0613,1014.34,11111222 
WAVCIS,ioos:station:WAVCIS:CSI03:1,2017-04-11T20:00:00Z,29.4412,-92.0613,1014.37,11111222 
WAVCIS,ioos:station:WAVCIS:CSI03:1,2017-04-11T21:00:00Z,29.4412,-92.0613,1014.48,11111222 